Regional Weather Roundup
Issued by NWS

Home | Current Version | Previous Version | Graphics & Text | Print | Product List | Glossary On
Versions: 1 2 3 4 5 6 7 8 9 10 11 12 13 14 15 16 17 18 19 20 21 22 23 24 25 26 27 28 29 30 31 32 33 34 35 36 37 38 39 40 41 42 43 44 45 46 47 48 49 50
000
ASUS43 KMPX 251801
RWRMN
WEATHER ROUNDUP FOR MINNESOTA
NATIONAL WEATHER SERVICE TWIN CITIES/CHANHASSEN MN
100 PM CDT WED MAY 25 2016


NOTE: "FAIR" INDICATES FEW OR NO CLOUDS BELOW 12,000 FEET WITH NO
SIGNIFICANT WEATHER AND/OR OBSTRUCTIONS TO VISIBILITY. N/A MEANS
CURRENT SKY AND/OR WEATHER CONDITIONS ARE NOT AVAILABLE.

MNZ060>063-068>070-251900-
   Twin Cities Metro

CITY           SKY/WX    TMP DP  RH WIND       PRES   REMARKS
TWIN CITIES    CLOUDY    71  64  78 E10       29.84F
6HR MIN TEMP:  67; 6HR MAX TEMP:  72; 6HR PCP:  0.33;

ST PAUL        LGT RAIN  71  66  84 SE10      29.86F
CRYSTAL        LGT RAIN  69  63  81 E6        29.84F
BLAINE         LGT RAIN  70  66  88 E9        29.86F
EDEN PRAIRIE   LGT RAIN  70  63  78 NE7       29.83F
6HR MIN TEMP:  67; 6HR MAX TEMP:  72; 6HR PCP:  0.18;

SOUTH ST PAUL  CLOUDY    71  67  87 E8        29.85F THUNDER
LAKE ELMO      TSTM      66  64  94 E9        29.88F
$$
MNZ001>005-007-008-013>017-022>024-027-028-251900-
   Northwest Minnesota

CITY           SKY/WX    TMP DP  RH WIND       PRES   REMARKS
BEMIDJI        CLOUDY    66  56  71 SE17G24   29.88R
HALLOCK        CLOUDY    63  57  82 E20G28    29.79F
ROSEAU         LGT RAIN  61  55  82 E15       29.88F
WARROAD        HVY RAIN  57  54  88 NE14      29.91F
THIEF RVR FALL CLOUDY    64  57  77 E18       29.83S
CROOKSTON      CLOUDY    66  61  82 SE10      29.81S
FOSSTON        LGT RAIN  64  55  72 SE14      29.83F
DETROIT LAKES  RAIN      61  57  88 SE16      29.80F
MOORHEAD       LGT RAIN  64  61  88 E3        29.75F
PARK RAPIDS    LGT RAIN  62  58  86 SE15G21   29.85F
MAHNOMEN       DRIZZLE   63  58  84 SE15G26   29.80F
$$
MNZ006-009>011-018-025>026-251900-
   North Central Minnesota

CITY           SKY/WX    TMP DP  RH WIND       PRES   REMARKS
BAUDETTE       CLOUDY    58  56  93 W3        29.94F
FLAG ISLAND    CLOUDY    61  54  77 SE10      29.94R
INTL FALLS     CLOUDY    64  54  69 E13       29.95F
6HR MIN TEMP:  53; 6HR MAX TEMP:  64;

WASKISH        CLOUDY    64  57  77 E12       29.90S
BIG FORK       CLOUDY    70  55  60 E9G17     29.93F
LONGVILLE      CLOUDY    63  55  77 SE9G18    29.91R
GRAND RAPIDS     N/A     63  54  72 E13       29.93
CRANE LAKE     CLOUDY    66  55  68 NE3       29.99F
ORR            CLOUDY    66  52  59 SE7       29.94F
COOK           CLOUDY    68  54  60 E6        29.97F
WALKER         CLOUDY    63  56  76 SE9G16    29.88F
$$
MNZ012-019>021-037-251900-
   Northeast Minnesota

CITY           SKY/WX    TMP DP  RH WIND       PRES   REMARKS
DULUTH         FOG       50  48  93 E20G28    30.00F VSB 1/4
6HR MIN TEMP:  49; 6HR MAX TEMP:  51; 6HR PCP: TRACE;

ELY            CLOUDY    64  48  55 SE14      30.01S
HIBBING        CLOUDY    63  53  70 SE14      29.96F
EVELETH        CLOUDY    63  52  67 SE7       29.99F
DULUTH HARBOR  FOG       45  45 100 NE23      30.01F VSB 1
TWO HARBORS    CLOUDY    54  48  82 NE10G17   30.01F HAZE
SILVER BAY     FOG       48  46  93 NE14      30.03F VSB 1/2
GRAND MARAIS     N/A     44  42  93 NE10      30.08F
G MARAIS ARPRT MOSUNNY   61  45  55 E9        30.08S
$$
MNZ029>031-032-039>041-046>048-054>057-064-251900-
   West Central Minnesota

CITY           SKY/WX    TMP DP  RH WIND       PRES   REMARKS
FERGUS FALLS   CLOUDY    66  57  72 SE17G25   29.71F
WHEATON        MOSUNNY   70  63  78 S17G25    29.74S
MORRIS         MOSUNNY   72  63  73 S24G31    29.75S
ALEXANDRIA     CLOUDY    64  59  83 SE15      29.81S
ELBOW LAKE     CLOUDY    65  60  84 SE21G28   29.74F
WADENA         LGT RAIN  61  59  94 E15G24    29.80F
GLENWOOD       CLOUDY    70  63  78 SE21G28   29.82R
APPLETON       MOSUNNY   75  63  64 S12G21    29.76S
BENSON         CLOUDY    73  59  60 S18G25    29.78S
ORTONVILLE     MOSUNNY   73  59  60 S13G21    29.76R
MADISON        MOSUNNY   77  57  50 S22       29.77S
WILLMAR        FAIR      73  64  73 SE17      29.84R
$$
MNZ033>034-036-042>043-049>051-058-059-251900-
   Central Minnesota

CITY           SKY/WX    TMP DP  RH WIND       PRES   REMARKS
ST CLOUD       LGT RAIN  64  62  93 VRB5      29.87R FOG
6HR MIN TEMP:  59; 6HR MAX TEMP:  66; 6HR PCP:  0.58;

SAUK CENTRE    MOCLDY    64  61  88 E13G18    29.82S
PAYNESVILLE    CLOUDY    67  64  90 E16       29.84S
AITKIN         MIX PCPN  61  54  77 SE12      29.92S
PINE RIVER     RAIN      59  57  94 SE9G21    29.93F
BRAINERD       LGT RAIN  58  57  97 E8        29.88F FOG
STAPLES        LGT RAIN  61  57  88 E10G16    29.84F
LONG PRAIRIE   CLOUDY    61  59  94 NE15      29.83F
LITTLE FALLS   LGT RAIN  61  59  94 E8        29.85F
LITCHFIELD     CLOUDY    70  66  88 E13G21    29.85S
BUFFALO        CLOUDY    66  62  87 E6        29.86F
MAPLE LAKE     DRIZZLE   66  64  94 E7        29.87S
HUTCHINSON     CLOUDY    68  65  89 E10       29.86S
$$
MNZ037-044-045-052-053-251900-
   East Central Minnesota

CITY           SKY/WX    TMP DP  RH WIND       PRES   REMARKS
PRINCETON      LGT RAIN  66  63  88 NE12      29.87S
MORA           LGT RAIN  59  55  88 E3        29.93F
CAMBRIDGE      CLOUDY    68  59  73 NE7       29.86F
RUSH CITY      TSTM      63  61  93 N5        29.91F
MOOSE LAKE     CLOUDY    52  48  87 E7G16     29.95F
HINCKLEY       RAIN      61  61 100 NE7       29.93F
CLOQUET        CLOUDY    52  50  93 E17       29.97F FOG
MCGREGOR       CLOUDY    57  52  82 SE9       29.97R
$$
MNZ071>073-080-081-089-090-097-098-251900-
   Southwest Minnesota

CITY           SKY/WX    TMP DP  RH WIND       PRES   REMARKS
MONTEVIDEO     PTSUNNY   77  63  61 S16G26    29.79F
GRANITE FALLS  PTSUNNY   77  64  63 S21G26    29.81S
CANBY          PTSUNNY   77  62  58 SW17G23   29.80S
MARSHALL       PTSUNNY   74  61  63 SW21      29.80R
REDWOOD FALLS  CLOUDY    75  63  66 S17       29.82R
OLIVIA         CLOUDY    72  63  73 S16       29.82R
PIPESTONE      PTSUNNY   72  61  68 SW10G16   29.83F
WINDOM         CLOUDY    77  63  61 S6G21     29.83S
WORTHINGTON    PTSUNNY   72  62  71 S15G22    29.85R
JACKSON        MOSUNNY   77  59  53 SW13G22   29.84S
TRACY          SUNNY     76  61  59 SW18G25   29.83S
SLAYTON        MOSUNNY   74  60  61 S15G23    29.84F
$$
MNZ065>067-074>077-082>085-091>093-251900-
   South Central Minnesota

CITY           SKY/WX    TMP DP  RH WIND       PRES   REMARKS
MANKATO        PTSUNNY   72  64  78 SE3       29.85R
NEW ULM        PTSUNNY   72  64  78 SE12      29.83S
ST JAMES       PTSUNNY   70  61  73 SE13      29.84S
FAIRMONT       MOSUNNY   75  52  43 SE16      29.83F
GLENCOE        CLOUDY    70  66  88 E14       29.85S
FARIBAULT      CLOUDY    73  66  78 E10       29.85F
OWATONNA       CLOUDY    72  66  83 E10       29.84F
WASECA         CLOUDY    72  68  88 E12       29.85F
ALBERT LEA     TSTM      64  63  94 S7G23     29.85R
$$
MNZ078>079-086>088-094>096-251900-
   Southeast Minnesota

CITY           SKY/WX    TMP DP  RH WIND       PRES   REMARKS
ROCHESTER      LGT RAIN  69  66  90 SE14      29.87F
6HR MIN TEMP:  64; 6HR MAX TEMP:  70; 6HR PCP: TRACE;

RED WING       PTSUNNY   72  64  78 SE5       29.84F
STANTON        CLOUDY    73  66  78 SE6       29.84F
DODGE CENTER   LGT RAIN  66  64  94 E13       29.86F
WINONA         PTSUNNY   72  64  78 SE5       29.88R
AUSTIN         CLOUDY    66  63  88 S16       29.86F
PRESTON        CLOUDY    68  64  88 SE10      29.89F
$$
ABBREVIATIONS USED IN REMARKS
   TC - TEMPERATURES IN CELSIUS
  WCI - WIND CHILL INDEX
   HX - HEAT INDEX
  VSB - VISIBILITY
$$




USA.gov is the U.S. government's official web portal to all federal, state and local government web resources and services.